[[{"header":{"parameterUnit":"m.s-1","parameterCategory":1,"la1":30.2992,"la2":30.254,"lo1":-89.0895,"lo2":-89.0443,"dy":0.0025,"dx":0.0025,"nx":19,"ny":19,"refTime":"2026-04-28T21:00:00:Z","depth":0,"parameterNumber":2,"parameterNumberName":"U-component_of_WINDS"},"data":[0,0,0,4.0591,4.0594,4.0731,4.0731,4.093,4.0932,0,0,0,0,0,0,0,0,0,0,0,4.0563,4.0565,4.059,4.0594,4.0731,4.0731,4.093,4.0932,0,0,0,0,0,0,0,0,0,0,0,4.0563,4.0565,4.0567,4.0595,4.0731,4.0731,4.0929,4.0818,0,0,0,0,0,0,0,0,0,0,4.0681,4.0669,4.0564,4.0567,4.0595,4.0731,4.0731,4.0812,4.0825,4.0878,0,4.0928,0,4.0933,4.0947,4.0947,0,0,0,4.0584,4.0658,4.0683,4.0567,4.0597,4.073,4.0666,4.0819,4.0833,4.0895,4.093,4.0937,4.0936,4.0948,4.0949,4.1283,4.1284,0,0,4.0577,4.0596,4.0673,4.0693,4.0672,4.0662,4.0671,4.0827,4.0868,4.0931,4.0941,4.094,4.0949,4.0951,4.1281,4.1283,0,0,0,4.0562,4.0591,4.0611,4.0685,4.0708,4.0666,4.0676,4.0861,4.0865,4.0943,4.0942,4.0951,4.0953,4.1278,4.1282,4.1396,0,0,0,4.0557,4.0582,4.0608,4.0621,4.0706,4.0786,4.0707,4.0855,4.0872,4.0941,4.0951,4.0956,4.1276,4.128,4.1388,4.1446,0,0,0,4.055,4.0581,4.0605,4.0622,4.0681,4.0783,4.0796,4.0858,4.0872,4.0948,4.0956,4.1275,4.1279,4.1381,4.1434,4.1536,0,0,0,4.0549,4.0708,4.0607,4.0785,4.068,4.0853,4.0795,4.0924,4.1003,4.0952,4.1277,4.1281,4.1378,4.1427,4.1529,4.1623,4.1664,0,0,4.076,4.0734,4.0837,4.0751,4.0945,4.0831,4.1043,4.1099,4.1091,4.1219,4.1227,4.139,4.1434,4.1535,4.1898,4.1931,0,0,0,4.091,4.0983,4.1031,4.1106,4.1152,4.1194,4.1215,4.1236,4.1343,4.116,4.1456,4.1481,4.154,4.1583,4.1612,4.1659,4.1303,4.1303,4.1302,4.1234,4.1213,4.138,4.1375,4.1449,4.1468,4.1525,4.1556,4.1515,4.1586,4.1622,4.1845,4.1897,4.1918,4.1968,4.1673,4.1674,4.1674,4.1674,4.1539,4.1637,4.1577,4.1717,4.1694,4.1812,4.1837,4.1804,4.191,4.1816,4.1867,4.1763,4.1955,4.1997,4.1683,4.1681,4.168,4.168,4.1679,4.1745,4.1788,4.181,4.1914,4.1997,4.1988,4.2091,4.2068,4.2047,4.2097,4.2131,4.2129,4.2121,4.2115,4.2116,4.2117,4.2118,4.2118,4.2119,4.195,4.197,4.2059,4.212,4.2163,4.2218,4.2238,4.2281,4.2322,4.2296,4.2296,4.2246,4.198,4.191,4.213,4.2128,4.2127,4.2126,4.2125,4.2259,4.2185,4.2323,4.2366,4.2434,4.2516,4.2485,4.2574,4.2606,4.2657,4.2597,4.2405,4.2377,4.2354,4.2297,4.2603,4.2603,4.2603,4.2603,4.2431,4.2414,4.2548,4.2618,4.2686,4.2671,4.2826,4.2844,4.2851,4.2869,4.2822,4.2745,4.2723,4.2708,4.2678,4.2623,4.3007,4.3007,4.3007,4.2618,4.2607,4.2743,4.2747,4.2798,4.2842,4.2986,4.307,4.3063,4.3023,4.2882,4.2865,4.274,4.2702,4.2656,4.2609,4.2509,0,0]},{"header":{"parameterUnit":"m.s-1","parameterCategory":1,"la1":30.2992,"la2":30.254,"lo1":-89.0895,"lo2":-89.0443,"dy":0.0025,"dx":0.0025,"nx":19,"ny":19,"refTime":"2026-04-28T21:00:00:Z","depth":0,"parameterNumber":3,"parameterNumberName":"V-component_of_WINDS"},"data":[0,0,0,2.5762,2.5766,2.5911,2.5912,2.6099,2.61,0,0,0,0,0,0,0,0,0,0,0,2.572,2.5722,2.5762,2.5766,2.5911,2.5912,2.6098,2.61,0,0,0,0,0,0,0,0,0,0,0,2.572,2.5721,2.5723,2.5766,2.5911,2.5912,2.6098,2.5988,0,0,0,0,0,0,0,0,0,0,2.5846,2.5809,2.5721,2.5723,2.5767,2.5911,2.5912,2.5982,2.5995,2.6033,0,2.6068,0,2.6087,2.6113,2.6114,0,0,0,2.5765,2.5798,2.5837,2.5723,2.5769,2.5911,2.5845,2.5989,2.6003,2.6049,2.6071,2.6078,2.609,2.6114,2.6115,2.6339,2.634,0,0,2.5757,2.5747,2.5827,2.5846,2.5824,2.5841,2.585,2.5998,2.602,2.6071,2.6082,2.6093,2.6115,2.6117,2.6338,2.6339,0,0,0,2.5734,2.5742,2.5776,2.5838,2.5864,2.5845,2.5856,2.6014,2.6026,2.6084,2.6095,2.6116,2.6119,2.6337,2.6338,2.6381,0,0,0,2.573,2.5728,2.5773,2.5768,2.5862,2.5941,2.5868,2.6015,2.6032,2.6095,2.6116,2.6121,2.6336,2.6338,2.6377,2.6403,0,0,0,2.5711,2.5726,2.5748,2.5767,2.583,2.5939,2.5959,2.6019,2.604,2.6114,2.6121,2.6335,2.6337,2.6374,2.6397,2.6457,0,0,0,2.5687,2.5785,2.5748,2.5861,2.5828,2.5964,2.5959,2.6061,2.6129,2.6117,2.6336,2.6338,2.6373,2.6394,2.6453,2.6505,2.6526,0,0,2.5804,2.5798,2.5866,2.5837,2.5977,2.5943,2.6089,2.6162,2.6179,2.6284,2.629,2.6379,2.6397,2.6456,2.6648,2.6664,0,0,0,2.5899,2.5947,2.5986,2.6051,2.6109,2.6159,2.6211,2.6237,2.6327,2.6231,2.6418,2.6429,2.6464,2.6489,2.6503,2.6533,2.635,2.635,2.6349,2.605,2.6065,2.6177,2.6209,2.6272,2.6323,2.6375,2.6419,2.6417,2.6461,2.6492,2.6606,2.6635,2.6645,2.6677,2.6521,2.6521,2.6522,2.6522,2.6222,2.6291,2.6285,2.639,2.6405,2.6494,2.6547,2.6542,2.6626,2.6585,2.6616,2.6568,2.6663,2.6691,2.6525,2.6525,2.6524,2.6524,2.6524,2.6321,2.6356,2.6387,2.6481,2.6551,2.6581,2.6661,2.6673,2.6684,2.6715,2.6748,2.6747,2.6747,2.6731,2.6731,2.6731,2.6732,2.6732,2.6732,2.6411,2.6444,2.651,2.6578,2.662,2.6677,2.6729,2.677,2.6819,2.6821,2.6821,2.6813,2.667,2.6633,2.6738,2.6737,2.6737,2.6736,2.6736,2.6576,2.654,2.6643,2.6685,2.6765,2.6833,2.6846,2.693,2.6966,2.7004,2.699,2.6883,2.6878,2.6867,2.6836,2.6988,2.6988,2.6988,2.6988,2.6658,2.6656,2.6763,2.6829,2.6895,2.6917,2.7031,2.7072,2.7108,2.7131,2.7111,2.7072,2.706,2.7061,2.7046,2.7017,2.7212,2.7212,2.7212,2.6759,2.6764,2.686,2.6894,2.6958,2.7011,2.7118,2.7193,2.7227,2.7222,2.7149,2.7139,2.7076,2.7055,2.7046,2.7022,2.697,0,0]}]]